Total_Precipitation_Accumulation
1.56 2.01 2.52 3.03 3.71 4.62 5.53 5.85 5.57 4.99 4.56 4.15 3.65 3.26 2.91 2.64 2.52 2.22 1.88 1.74 1.68 1.66 1.82 1.58 1.69 1.72 1.77 1.78 1.81 1.87 1.77 1.56 1.74 2.03 1.85 1.51 1.34 1.28 1.22 1.18 1.28 1.20 1.23
1.62 2.12 2.69 3.11 3.46 3.99 4.73 5.01 4.64 3.99 3.42 3.13 2.96 2.77 2.67 2.35 2.14 2.03 1.91 1.62 1.57 1.59 1.61 1.65 1.42 1.44 1.57 1.50 1.52 1.77 1.73 1.50 1.60 1.92 2.04 1.82 1.74 1.48 1.01 1.07 1.22 1.22 1.33
1.46 2.18 2.71 2.99 3.25 3.45 3.44 3.55 3.42 2.92 2.57 2.46 2.44 2.40 2.47 2.29 2.03 1.89 1.71 1.46 1.38 1.33 1.37 1.36 1.33 1.43 1.38 1.43 1.51 1.58 1.67 1.57 1.47 1.58 2.00 1.92 1.71 1.47 1.26 1.18 1.15 1.28 1.51
1.32 2.06 2.34 2.44 2.47 2.57 2.38 2.38 2.45 2.27 2.20 2.10 2.11 1.98 1.84 1.79 1.68 1.67 1.59 1.45 1.35 1.27 1.17 1.19 1.18 1.26 1.27 1.49 1.33 1.39 1.55 1.57 1.42 1.47 1.59 1.64 1.67 1.64 1.44 1.25 1.16 1.22 1.35
1.01 1.35 1.41 1.52 1.60 1.68 1.72 1.88 2.12 2.13 2.03 1.97 2.06 2.06 1.79 1.62 1.53 1.54 1.58 1.46 1.33 1.25 1.14 1.17 1.23 1.26 1.26 1.31 1.37 1.55 1.52 1.47 1.44 1.45 1.50 1.60 1.63 1.52 1.51 1.45 1.26 1.18 1.08
0.70 0.89 0.95 0.98 1.04 1.10 1.23 1.43 1.81 1.95 1.87 1.82 1.86 1.83 1.75 1.66 1.52 1.40 1.40 1.38 1.30 1.27 1.27 1.24 1.31 1.30 1.29 1.30 1.32 1.41 1.40 1.45 1.50 1.42 1.39 1.55 1.64 1.57 1.59 1.50 1.31 1.20 1.02
0.62 0.73 0.86 0.87 0.81 0.79 0.90 1.10 1.33 1.45 1.49 1.56 1.65 1.72 1.77 1.70 1.51 1.41 1.31 1.28 1.18 1.17 1.30 1.32 1.32 1.38 1.39 1.32 1.33 1.34 1.29 1.38 1.51 1.43 1.34 1.35 1.35 1.46 1.54 1.52 1.33 1.25 1.14
0.47 0.49 0.56 0.56 0.55 0.64 0.73 0.88 1.00 1.09 1.18 1.26 1.40 1.53 1.56 1.54 1.45 1.46 1.34 1.26 1.15 1.14 1.25 1.35 1.32 1.28 1.24 1.21 1.41 1.31 1.26 1.37 1.43 1.38 1.57 1.50 1.33 1.48 1.58 1.61 1.64 1.48 1.43
0.33 0.30 0.30 0.31 0.38 0.55 0.66 0.73 0.81 0.91 1.00 1.08 1.25 1.38 1.41 1.38 1.40 1.39 1.26 1.18 1.22 1.17 1.22 1.18 1.23 1.24 1.19 1.22 1.35 1.34 1.34 1.39 1.36 1.46 1.64 1.60 1.50 1.52 1.58 1.70 1.86 1.97 1.80
0.26 0.27 0.25 0.23 0.24 0.31 0.46 0.60 0.70 0.84 0.97 1.03 1.05 1.10 1.25 1.22 1.21 1.18 1.10 1.18 1.21 1.19 1.26 1.27 1.17 1.17 1.20 1.28 1.39 1.37 1.35 1.45 1.52 1.66 1.78 1.75 1.71 1.70 1.63 1.70 1.80 1.96 2.00
0.29 0.24 0.25 0.23 0.21 0.24 0.36 0.51 0.60 0.72 0.82 0.84 0.85 0.97 1.08 1.07 1.03 1.02 0.99 1.05 1.07 1.11 1.16 1.18 1.19 1.19 1.26 1.44 1.68 1.63 1.57 1.59 1.66 1.75 1.89 1.94 2.07 2.05 1.87 1.83 1.80 1.84 1.96
0.39 0.32 0.29 0.24 0.28 0.29 0.32 0.44 0.46 0.50 0.55 0.60 0.66 0.79 0.92 0.92 0.91 0.94 1.06 1.11 1.09 1.03 0.96 0.99 1.06 1.06 1.17 1.39 1.70 1.82 1.81 1.82 1.75 1.83 2.07 2.10 2.09 2.02 1.91 1.93 1.86 1.82 1.95
0.40 0.47 0.44 0.30 0.32 0.29 0.32 0.36 0.33 0.40 0.47 0.50 0.52 0.63 0.78 0.90 0.95 0.99 1.06 1.13 1.14 1.08 1.07 1.08 1.10 1.22 1.29 1.32 1.49 1.66 1.74 1.77 1.75 1.87 1.96 1.97 2.04 1.96 1.92 1.85 1.81 1.77 1.91
0.40 0.52 0.55 0.34 0.29 0.29 0.31 0.30 0.32 0.37 0.38 0.43 0.52 0.61 0.71 0.87 0.98 1.04 1.10 1.17 1.21 1.19 1.22 1.21 1.25 1.34 1.37 1.34 1.42 1.56 1.67 1.71 1.75 1.84 1.92 1.97 1.98 2.03 2.12 2.01 1.97 2.04 2.11
0.44 0.39 0.42 0.35 0.34 0.35 0.33 0.33 0.38 0.42 0.42 0.48 0.56 0.62 0.72 0.78 0.88 1.04 1.16 1.26 1.32 1.25 1.31 1.37 1.36 1.36 1.31 1.26 1.47 1.61 1.62 1.74 1.81 1.81 1.79 1.86 2.05 2.14 2.16 2.00 2.02 2.13 2.12
0.49 0.56 0.56 0.50 0.49 0.46 0.41 0.41 0.48 0.51 0.57 0.66 0.71 0.74 0.82 0.91 0.96 1.04 1.08 1.22 1.28 1.34 1.42 1.48 1.51 1.44 1.25 1.44 1.58 1.59 1.62 1.72 1.77 1.78 1.71 1.64 1.67 1.75 1.85 1.83 1.77 1.81 1.87
0.65 0.73 0.78 0.72 0.66 0.59 0.51 0.50 0.56 0.64 0.72 0.81 0.93 1.00 1.04 1.15 1.18 1.19 1.17 1.20 1.34 1.44 1.47 1.48 1.49 1.47 1.54 1.58 1.43 1.38 1.32 1.38 1.47 1.48 1.45 1.27 1.18 1.39 1.47 1.60 1.60 1.50 1.47
0.65 0.76 0.85 0.84 0.75 0.73 0.74 0.82 0.84 0.89 1.01 1.11 1.23 1.36 1.41 1.47 1.53 1.57 1.53 1.54 1.59 1.66 1.65 1.57 1.58 1.67 1.70 1.68 1.45 1.34 1.22 1.22 1.24 1.24 1.20 1.20 1.17 1.22 1.31 1.38 1.39 1.35 1.31
0.70 0.87 0.88 0.85 0.84 0.95 1.00 1.01 1.06 1.13 1.30 1.47 1.57 1.66 1.72 1.75 1.76 1.73 1.78 1.85 1.95 1.95 1.93 1.89 1.94 1.96 2.03 1.99 1.69 1.55 1.35 1.31 1.26 1.27 1.32 1.33 1.22 1.27 1.23 1.21 1.22 1.23 1.29
0.80 0.91 0.97 0.96 1.03 1.26 1.31 1.34 1.38 1.46 1.52 1.57 1.67 1.81 1.92 1.98 1.94 1.93 2.04 2.20 2.33 2.29 2.28 2.31 2.32 2.26 2.22 2.17 1.81 1.64 1.43 1.44 1.42 1.45 1.39 1.33 1.18 1.13 1.07 1.07 1.13 1.10 1.11
0.76 0.87 0.92 0.98 1.05 1.22 1.36 1.60 1.75 1.79 1.81 1.85 1.86 1.89 1.98 2.09 2.09 2.14 2.19 2.33 2.44 2.42 2.39 2.32 2.26 2.19 2.19 2.12 1.81 1.65 1.49 1.53 1.56 1.49 1.43 1.36 1.23 1.06 1.00 0.94 0.95 0.97 1.02
0.65 0.76 0.92 1.03 1.13 1.30 1.53 1.72 1.87 2.01 2.09 2.08 2.17 2.16 2.16 2.07 2.01 2.17 2.29 2.40 2.51 2.47 2.44 2.47 2.36 2.26 2.18 2.00 1.77 1.60 1.52 1.60 1.65 1.61 1.54 1.47 1.32 1.09 1.00 0.89 0.88 0.89 0.88
0.72 0.76 0.88 1.03 1.12 1.23 1.45 1.79 1.87 1.90 1.94 2.01 2.05 2.13 2.12 2.10 2.12 2.21 2.30 2.42 2.44 2.41 2.33 2.34 2.33 2.23 2.13 2.05 1.83 1.58 1.47 1.48 1.49 1.58 1.65 1.50 1.34 1.17 1.04 1.01 0.97 0.89 0.82
0.77 0.82 0.90 1.01 1.09 1.06 1.17 1.37 1.56 1.67 1.68 1.68 1.71 1.73 1.84 1.91 2.06 2.23 2.27 2.33 2.38 2.40 2.40 2.36 2.30 2.26 2.22 2.19 1.97 1.70 1.49 1.47 1.51 1.58 1.62 1.48 1.36 1.19 1.06 1.04 0.96 0.85 0.82
0.68 0.75 0.89 0.90 0.94 1.03 1.03 1.08 1.15 1.33 1.47 1.50 1.51 1.58 1.69 1.78 1.93 2.13 2.25 2.18 2.20 2.34 2.26 2.13 2.03 1.95 1.90 1.96 1.83 1.60 1.50 1.48 1.56 1.62 1.70 1.63 1.50 1.39 1.25 1.16 1.11 1.08 1.03
0.67 0.73 0.80 0.81 0.81 0.91 0.94 0.97 1.10 1.27 1.36 1.35 1.36 1.39 1.42 1.51 1.63 1.79 1.90 1.85 1.61 1.63 1.55 1.41 1.29 1.26 1.29 1.34 1.29 1.19 1.13 1.17 1.30 1.42 1.60 1.59 1.48 1.40 1.36 1.32 1.25 1.20 1.12